When you browse on this site, cookies collect data to enhance your experience and personalize the content and advertising you see.
Visit our Privacy Policy to learn more. By continuing to use the site, you agree to this use of cookies and data.
  • en Suisse
  • Liste des pays
  • À 7 jours
  • Température de l'eau
  • Carte satellitaire
  • Carte météo
  • Widgets météo
  • user-avatar
    Se connecter

    Météo par heure à Setif

    Ce jour, 21 Mars, Jeudi

    Heure Température Précipitation Vent Pression Humidité
    00:00 +1°C° 0 mm 5 m/s 671 mmHg 88%
    01:00 +1°C° 0.7 mm 6 m/s 670 mmHg 89%
    02:00 +1°C° 0.7 mm 6 m/s 670 mmHg 90%
    03:00 +1°C° 0.7 mm 6 m/s 669 mmHg 91%
    04:00 0°C° 1 mm 7 m/s 669 mmHg 91%
    05:00 +2°C° 1 mm 7 m/s 669 mmHg 92%
    06:00 +2°C° 0 mm 7 m/s 668 mmHg 91%
    07:00 +3°C° 2.6 mm 6 m/s 668 mmHg 92%
    08:00 +3°C° 2.6 mm 6 m/s 669 mmHg 93%
    09:00 +5°C° 2.6 mm 5 m/s 669 mmHg 94%
    10:00 +5°C° 4 mm 5 m/s 669 mmHg 94%
    11:00 +5°C° 4 mm 5 m/s 669 mmHg 95%
    12:00 +5°C° 4 mm 4 m/s 669 mmHg 95%
    13:00 +5°C° 4 mm 4 m/s 669 mmHg 95%
    14:00 +5°C° 4 mm 4 m/s 669 mmHg 95%
    15:00 +5°C° 4 mm 4 m/s 669 mmHg 95%
    16:00 +5°C° 1.6 mm 5 m/s 669 mmHg 95%
    17:00 +6°C° 1.6 mm 5 m/s 670 mmHg 95%
    18:00 +5°C° 1.6 mm 6 m/s 670 mmHg 95%
    19:00 +6°C° 0.5 mm 5 m/s 670 mmHg 95%
    20:00 +6°C° 0.5 mm 5 m/s 670 mmHg 96%
    21:00 +5°C° 0.5 mm 5 m/s 671 mmHg 96%
    22:00 +5°C° 0.9 mm 5 m/s 671 mmHg 96%
    23:00 +5°C° 0.9 mm 4 m/s 671 mmHg 96%

    Demain, 22 Mars, Vendredi

    Heure Température Précipitation Vent Pression Humidité
    00:00 +5°C° 0.9 mm 4 m/s 671 mmHg 96%
    01:00 +5°C° 0.9 mm 4 m/s 671 mmHg 96%
    02:00 +5°C° 0.9 mm 4 m/s 670 mmHg 96%
    03:00 +5°C° 0.9 mm 4 m/s 670 mmHg 96%
    04:00 +5°C° 1.3 mm 4 m/s 670 mmHg 96%
    05:00 +5°C° 1.3 mm 4 m/s 671 mmHg 96%
    06:00 +5°C° 1.3 mm 3 m/s 671 mmHg 96%
    07:00 +5°C° 1.6 mm 3 m/s 671 mmHg 95%
    08:00 +7°C° 1.6 mm 3 m/s 672 mmHg 94%
    09:00 +7°C° 1.6 mm 3 m/s 672 mmHg 93%
    10:00 +7°C° 2.7 mm 3 m/s 672 mmHg 93%
    11:00 +7°C° 2.7 mm 3 m/s 672 mmHg 93%
    12:00 +7°C° 2.7 mm 2 m/s 672 mmHg 94%
    13:00 +7°C° 0.3 mm 3 m/s 672 mmHg 87%
    14:00 +8°C° 0.3 mm 3 m/s 672 mmHg 80%
    15:00 +9°C° 0.3 mm 3 m/s 672 mmHg 74%
    16:00 +8°C° 0.1 mm 3 m/s 672 mmHg 78%
    17:00 +7°C° 0.1 mm 3 m/s 672 mmHg 82%
    18:00 +5°C° 0.1 mm 3 m/s 672 mmHg 86%
    19:00 +6°C° 0 mm 2 m/s 673 mmHg 89%
    20:00 +5°C° 0 mm 2 m/s 673 mmHg 91%
    21:00 +5°C° 0 mm 2 m/s 674 mmHg 94%
    22:00 +5°C° 0 mm 2 m/s 673 mmHg 94%
    23:00 +5°C° 0 mm 1 m/s 673 mmHg 94%

    Après-demain, 23 Mars, Samedi

    Heure Température Précipitation Vent Pression Humidité
    00:00 +5°C° 0 mm 1 m/s 673 mmHg 94%
    01:00 +5°C° 0 mm 1 m/s 673 mmHg 95%
    02:00 +4°C° 0 mm 2 m/s 673 mmHg 95%
    03:00 +4°C° 0 mm 2 m/s 673 mmHg 96%
    04:00 +4°C° 0.1 mm 2 m/s 673 mmHg 96%
    05:00 +4°C° 0.1 mm 2 m/s 673 mmHg 96%
    06:00 +4°C° 0.1 mm 2 m/s 673 mmHg 96%
    07:00 +4°C° 0.4 mm 2 m/s 674 mmHg 93%
    08:00 +5°C° 0.4 mm 2 m/s 674 mmHg 90%
    09:00 +6°C° 0.4 mm 2 m/s 675 mmHg 87%
    10:00 +7°C° 0.2 mm 2 m/s 675 mmHg 84%
    11:00 +8°C° 0.2 mm 2 m/s 675 mmHg 82%
    12:00 +9°C° 0.2 mm 3 m/s 675 mmHg 79%
    13:00 +9°C° 0.2 mm 3 m/s 675 mmHg 80%
    14:00 +9°C° 0.2 mm 3 m/s 674 mmHg 80%
    15:00 +9°C° 0.2 mm 3 m/s 674 mmHg 80%
    16:00 +8°C° 0.1 mm 3 m/s 674 mmHg 84%
    17:00 +8°C° 0.1 mm 2 m/s 674 mmHg 87%
    18:00 +7°C° 0.1 mm 2 m/s 674 mmHg 91%
    19:00 +7°C° 0 mm 2 m/s 675 mmHg 92%
    20:00 +8°C° 0 mm 1 m/s 675 mmHg 93%
    21:00 +8°C° 0 mm 1 m/s 675 mmHg 94%
    22:00 +7°C° 0 mm 1 m/s 675 mmHg 94%
    23:00 +7°C° 0 mm 1 m/s 675 mmHg 95%

    24 Mars, Dimanche

    Heure Température Précipitation Vent Pression Humidité
    00:00 +6°C° 0 mm 1 m/s 675 mmHg 95%
    01:00 +6°C° 0 mm 1 m/s 674 mmHg 95%
    02:00 +5°C° 0 mm 1 m/s 674 mmHg 95%
    03:00 +5°C° 0 mm 1 m/s 674 mmHg 95%
    04:00 +5°C° 0 mm 1 m/s 674 mmHg 94%
    05:00 +5°C° 0 mm 1 m/s 674 mmHg 94%
    06:00 +5°C° 0 mm 1 m/s 674 mmHg 93%
    07:00 +6°C° 0 mm 2 m/s 675 mmHg 85%
    08:00 +8°C° 0 mm 2 m/s 676 mmHg 77%
    09:00 +10°C° 0 mm 2 m/s 677 mmHg 69%
    10:00 +12°C° 0 mm 2 m/s 677 mmHg 64%
    11:00 +13°C° 0 mm 2 m/s 677 mmHg 59%
    12:00 +14°C° 0 mm 2 m/s 677 mmHg 53%
    13:00 +14°C° 0.1 mm 2 m/s 676 mmHg 52%
    14:00 +14°C° 0.1 mm 2 m/s 676 mmHg 51%
    15:00 +14°C° 0.1 mm 2 m/s 676 mmHg 49%
    16:00 +13°C° 0.1 mm 2 m/s 675 mmHg 55%
    17:00 +12°C° 0.1 mm 1 m/s 675 mmHg 62%
    18:00 +11°C° 0.1 mm 1 m/s 675 mmHg 68%
    19:00 +10°C° 0 mm 1 m/s 675 mmHg 70%
    20:00 +10°C° 0 mm 1 m/s 675 mmHg 72%
    21:00 +9°C° 0 mm 1 m/s 675 mmHg 74%
    22:00 +9°C° 0 mm 1 m/s 675 mmHg 75%
    23:00 +8°C° 0 mm 2 m/s 675 mmHg 75%

    25 Mars, Lundi

    Heure Température Précipitation Vent Pression Humidité
    00:00 +7°C° 0 mm 2 m/s 674 mmHg 76%
    01:00 +7°C° 0 mm 2 m/s 674 mmHg 76%
    02:00 +7°C° 0 mm 2 m/s 674 mmHg 77%
    03:00 +6°C° 0 mm 2 m/s 673 mmHg 77%
    04:00 +6°C° 0 mm 2 m/s 673 mmHg 77%
    05:00 +6°C° 0 mm 2 m/s 674 mmHg 78%
    06:00 +7°C° 0 mm 1 m/s 674 mmHg 78%
    07:00 +8°C° 0 mm 2 m/s 674 mmHg 70%
    08:00 +10°C° 0 mm 2 m/s 675 mmHg 62%
    09:00 +13°C° 0 mm 2 m/s 676 mmHg 55%
    10:00 +14°C° 0 mm 2 m/s 676 mmHg 52%
    11:00 +14°C° 0 mm 1 m/s 676 mmHg 49%
    12:00 +15°C° 0 mm 1 m/s 676 mmHg 46%
    13:00 +16°C° 0 mm 1 m/s 675 mmHg 46%
    14:00 +16°C° 0 mm 2 m/s 675 mmHg 47%
    15:00 +16°C° 0 mm 2 m/s 674 mmHg 47%
    16:00 +15°C° 0 mm 2 m/s 674 mmHg 55%
    17:00 +14°C° 0 mm 2 m/s 674 mmHg 62%
    18:00 +12°C° 0 mm 2 m/s 674 mmHg 69%
    19:00 +10°C° 0 mm 2 m/s 674 mmHg 75%
    20:00 +11°C° 0 mm 1 m/s 674 mmHg 81%
    21:00 +10°C° 0 mm 1 m/s 674 mmHg 87%
    22:00 +9°C° 0 mm 1 m/s 674 mmHg 89%
    23:00 +9°C° 0 mm 1 m/s 674 mmHg 90%

    26 Mars, Mardi

    Heure Température Précipitation Vent Pression Humidité
    00:00 +7°C° 0 mm 0 m/s 674 mmHg 92%
    01:00 +7°C° 0 mm 0 m/s 673 mmHg 92%
    02:00 +6°C° 0 mm 0 m/s 673 mmHg 93%
    03:00 +6°C° 0 mm 0 m/s 673 mmHg 93%
    04:00 +6°C° 0 mm 0 m/s 673 mmHg 93%
    05:00 +6°C° 0 mm 0 m/s 673 mmHg 93%
    06:00 +6°C° 0 mm 0 m/s 673 mmHg 92%
    07:00 +8°C° 0 mm 0 m/s 674 mmHg 81%
    08:00 +10°C° 0 mm 0 m/s 675 mmHg 70%
    09:00 +12°C° 0 mm 0 m/s 675 mmHg 59%
    10:00 +14°C° 0 mm 1 m/s 676 mmHg 54%
    11:00 +15°C° 0 mm 1 m/s 676 mmHg 48%
    12:00 +16°C° 0 mm 1 m/s 676 mmHg 42%
    13:00 +17°C° 0 mm 2 m/s 675 mmHg 42%
    14:00 +17°C° 0 mm 2 m/s 675 mmHg 42%
    15:00 +17°C° 0 mm 2 m/s 675 mmHg 43%
    16:00 +16°C° 0 mm 2 m/s 675 mmHg 49%
    17:00 +15°C° 0 mm 2 m/s 674 mmHg 55%
    18:00 +13°C° 0 mm 2 m/s 674 mmHg 61%
    19:00 +12°C° 0 mm 2 m/s 674 mmHg 66%
    20:00 +10°C° 0 mm 2 m/s 674 mmHg 71%
    21:00 +11°C° 0 mm 1 m/s 674 mmHg 76%
    22:00 +10°C° 0 mm 1 m/s 674 mmHg 77%
    23:00 +10°C° 0 mm 1 m/s 674 mmHg 78%
    Voir plus